Location: ?????? ??????
(44.3742°N, 135.2221°E)
Time: 06:27:46
(UTC+00:00)

Cosmos 1743 - Pass Details

Date: 19 May 2025
Orbit: 432 x 442 km, 82.5° (Epoch: 15 June)

Event Time Altitude Azimuth Distance (km) Brightness Sun altitude
Rises 12:28:12 0° 339° (NNW) 2,454 7.6 -17.4°
Reaches altitude 10° 12:30:31 10° 325° (NW) 1,576 6.5 -17.7°
Maximum altitude 12:33:20 24° 270° (W) 967 4.4 -18.0°
Enters shadow 12:35:31 14° 221° (SW) 1,358 4.7 -18.2°
